Change the Weather History Date:

Monday, September 3, 2012

  Actual Average Record
Temperature  
Mean Temperature 60 °F -  
Max Temperature 78 °F 72 °F 89 °F (1999)
Min Temperature 44 °F 44 °F 36 °F (2001)
Degree Days  
Heating Degree Days 6    
Growing Degree Days 10 (Base 50)    
Moisture  
Dew Point 49 °F    
Average Humidity 87    
Maximum Humidity 100    
Minimum Humidity 40    
Precipitation  
Precipitation 0.01 in - - ()
Sea Level Pressure  
Sea Level Pressure 30.19 in    
Wind  
Wind Speed 0 mph (SW)    
Max Wind Speed 7 mph    
Max Gust Speed -    
Visibility 4 miles    
Events Fog    
Averages and records for this station are not official NWS values.
T = Trace of Precipitation, MM = Missing Value Source: NWS Daily Summary

Daily Weather History Graph

Daily Weather History Graph

Search for Another Location

Airport or City:

Trip Planner

Search our weather history database for the weather conditions in past years. The results will help you decide how hot, cold, wet, or windy it might be!

Date:

Astronomy

Sep. 03, 2012 Rise Set
Actual Time 6:10 AM EDT 7:16 PM EDT
Civil Twilight 5:40 AM EDT 7:46 PM EDT
Nautical Twilight 5:04 AM EDT 8:22 PM EDT
Astronomical Twilight 4:26 AM EDT 8:59 PM EDT
Moon 8:22 PM EDT (9/3) 9:25 AM EDT (9/3)
Length of Visible Light 14h 06m
Length of Day
13h 06m
Waning Gibbous, 90% of the Moon is Illuminated
Sep 3
Waning Gibbous
Sep 8
Last Quarter
Sep 15
New
Sep 22
First Quarter
Sep 29
Full

Hourly Weather History & Observations

Time (EDT) Temp. Dew Point Humidity Pressure Visibility Wind Dir Wind Speed Gust Speed Precip Events Conditions
12:11 AM 44.6 °F 44.6 °F 100% 30.17 in 1.5 mi Calm Calm - N/A   Mostly Cloudy
12:15 AM 44.6 °F 44.6 °F 100% 30.18 in 0.8 mi Calm Calm - N/A   Overcast
12:25 AM 46.4 °F 44.6 °F 93% 30.18 in 1.8 mi Calm Calm - N/A   Overcast
12:47 AM 46.4 °F 44.6 °F 93% 30.19 in 1.8 mi Calm Calm - N/A   Overcast
12:52 AM 45.0 °F 43.0 °F 93% 30.19 in 0.8 mi Calm Calm - N/A   Overcast
1:07 AM 46.4 °F 44.6 °F 93% 30.19 in 1.5 mi Calm Calm - N/A   Overcast
1:12 AM 44.6 °F 44.6 °F 100% 30.19 in 1.0 mi Calm Calm - N/A   Mist
1:17 AM 44.6 °F 44.6 °F 100% 30.19 in 0.2 mi Calm Calm - N/A Fog Fog
1:37 AM 44.6 °F 44.6 °F 100% 30.19 in 0.5 mi Calm Calm - N/A Fog Fog
1:45 AM 44.6 °F 44.6 °F 100% 30.19 in 0.2 mi Calm Calm - N/A Fog Fog
1:52 AM 46.0 °F 45.0 °F 96% 30.20 in 0.2 mi Calm Calm - N/A Fog Fog
2:15 AM 46.4 °F 44.6 °F 93% 30.20 in 0.2 mi Calm Calm - N/A Fog Fog
2:50 AM 48.2 °F 46.4 °F 93% 30.20 in 0.2 mi Calm Calm - N/A Fog Fog
2:52 AM 48.0 °F 46.9 °F 96% 30.20 in 0.2 mi Calm Calm - N/A Fog Fog
3:50 AM 48.2 °F 46.4 °F 93% 30.20 in 0.2 mi Calm Calm - N/A Fog Fog
3:52 AM 48.0 °F 48.0 °F 100% 30.20 in 0.2 mi Calm Calm - N/A Fog Fog
4:43 AM 48.2 °F 48.2 °F 100% 30.21 in 0.5 mi Calm Calm - N/A Fog Fog
5:52 AM 48.9 °F 48.0 °F 97% 30.23 in 0.2 mi Calm Calm - 0.01 in Fog Fog
6:52 AM 48.9 °F 48.0 °F 97% 30.25 in 0.5 mi NNE 3.5 mph - N/A Fog Fog
7:06 AM 48.2 °F 48.2 °F 100% 30.24 in 0.2 mi Calm Calm - N/A Fog Fog
7:48 AM 50.0 °F 48.2 °F 94% 30.24 in 0.2 mi Calm Calm - N/A Fog Fog
7:52 AM 48.9 °F 48.9 °F 100% 30.26 in 0.2 mi Calm Calm - N/A Fog Fog
8:32 AM 50.0 °F 48.2 °F 94% 30.23 in 0.5 mi Calm Calm - N/A Fog Fog
8:52 AM 51.1 °F 50.0 °F 96% 30.25 in 0.5 mi NNW 3.5 mph - N/A Fog Fog
9:23 AM 51.8 °F 51.8 °F 100% 30.23 in 1.2 mi Calm Calm - N/A   Overcast
9:32 AM 51.8 °F 51.8 °F 100% 30.23 in 2.0 mi Calm Calm - N/A   Overcast
9:42 AM 53.6 °F 51.8 °F 94% 30.23 in 6.0 mi Calm Calm - N/A   Overcast
9:52 AM 54.0 °F 52.0 °F 93% 30.24 in 9.0 mi Calm Calm - N/A   Overcast
10:19 AM 57.2 °F 53.6 °F 88% 30.23 in 10.0 mi Calm Calm - N/A   Scattered Clouds
10:52 AM 64.0 °F 54.0 °F 70% 30.22 in 10.0 mi Calm Calm - N/A   Clear
11:52 AM 72.0 °F 53.1 °F 51% 30.19 in 10.0 mi Calm Calm - N/A   Clear
12:52 PM 73.0 °F 53.1 °F 49% 30.19 in 10.0 mi Calm Calm - N/A   Mostly Cloudy
1:52 PM 73.9 °F 52.0 °F 46% 30.17 in 10.0 mi SW 5.8 mph - N/A   Scattered Clouds
2:52 PM 75.9 °F 50.0 °F 40% 30.16 in 10.0 mi Calm Calm - N/A   Scattered Clouds
3:52 PM 75.9 °F 51.1 °F 42% 30.14 in 10.0 mi NW 5.8 mph - N/A   Overcast
4:52 PM 75.9 °F 55.9 °F 50% 30.14 in 10.0 mi South 5.8 mph - N/A   Mostly Cloudy
5:52 PM 73.0 °F 57.0 °F 57% 30.13 in 10.0 mi South 6.9 mph - N/A   Clear
6:52 PM 68.0 °F 57.0 °F 68% 30.13 in 10.0 mi SSE 3.5 mph - N/A   Clear
7:52 PM 62.1 °F 57.0 °F 84% 30.14 in 10.0 mi Calm Calm - N/A   Clear
8:52 PM 57.9 °F 55.0 °F 90% 30.16 in 10.0 mi Calm Calm - N/A   Scattered Clouds
9:52 PM 55.9 °F 54.0 °F 93% 30.16 in 10.0 mi Calm Calm - N/A   Clear
10:52 PM 52.0 °F 50.0 °F 93% 30.15 in 9.0 mi Calm Calm - N/A   Clear
11:52 PM 50.0 °F 48.9 °F 96% 30.14 in 10.0 mi Calm Calm - N/A   Partly Cloudy